DW2373 Thessaloniki GR current weather conditions

sailwx.info

Wind from 217 at 0 knots gusting 4

Air temperature 35.0° C
Dewpoint 16.8° C

Last reported at 2015-Aug-30 21:03 UTC.
Time now 2015-Aug-30 22:31 UTC

Location: N 40°31' E 022°58'.
View on Google Maps.

See reports from other nearby stations

  
Tides and Currents Weather Stations Pressure Air Temp Water Temp Dewpoint Dewpoint Depression Visibility Wind Speed Wind Dir Waves Ship Positions
date/time (UTC)wind fromknots sea level pressurealtimeterstation pressurevisibilityair tempwater tempwave heightnotes
2015-Aug-30 21:03 217 0 gusting 4 35.0
2015-Aug-30 20:03 062 2 gusting 5 35.0
2015-Aug-30 19:03 074 1 gusting 5 35.0
2015-Aug-30 18:03 087 0 gusting 5 35.0
2015-Aug-30 17:03 315 35.0
2015-Aug-30 16:03 339 0 gusting 6 35.0
2015-Aug-30 15:03 039 0 gusting 4 35.0
2015-Aug-30 14:03 295 2 gusting 5 35.0
2015-Aug-30 13:03 317 2 gusting 8 35.0
2015-Aug-30 12:03 220 2 gusting 8 35.6
2015-Aug-30 11:03 303 4 gusting 6 33.9
2015-Aug-30 10:03 201 4 gusting 6 33.3
2015-Aug-30 09:03 329 1 gusting 4 31.1
2015-Aug-30 08:03 297 0 gusting 4 29.4
2015-Aug-30 07:03 044 0 gusting 2 25.0
2015-Aug-30 06:03 179 25.0
2015-Aug-30 05:03 049 22.8
2015-Aug-30 04:03 161 22.2
2015-Aug-30 03:03 102 22.8
2015-Aug-30 02:03 072 1 gusting 2 23.3
2015-Aug-30 01:03 111 25.0
2015-Aug-30 00:03 077 1 gusting 4 25.0
2015-Aug-29 23:03 061 1 gusting 5 25.0
2015-Aug-29 22:03 070 25.0
2015-Aug-29 21:03 059 0 gusting 4 26.1
2015-Aug-29 20:03 067 26.1
2015-Aug-29 19:03 097 1 gusting 5 34.4
2015-Aug-29 18:03 096 1 gusting 7 34.4
2015-Aug-29 17:03 112 0 gusting 4 34.4
2015-Aug-29 16:03 112 5 gusting 6 34.4
2015-Aug-29 15:03 214 2 gusting 7 34.4
2015-Aug-29 14:03 256 2 gusting 8 34.4
2015-Aug-29 13:03 254 1 gusting 6 34.4
2015-Aug-29 12:03 199 3 gusting 6 32.8
2015-Aug-29 11:03 281 1 gusting 6 28.3
2015-Aug-29 10:03 206 1 gusting 5 28.3
2015-Aug-29 09:03 267 28.3
2015-Aug-29 08:03 235 1 gusting 4 28.3
2015-Aug-29 07:03 320 0 gusting 2 26.7
2015-Aug-29 06:03 202 25.0
2015-Aug-29 05:03 104 22.8
2015-Aug-29 04:03 135 21.7
2015-Aug-29 03:03 073 22.2
2015-Aug-29 02:03 101 0 gusting 4 22.8
2015-Aug-29 01:03 069 0 gusting 2 22.8
2015-Aug-29 00:03 096 23.3